Volver al catálogo

STARLINK-5603

ActivoComunicacionesVLEO
NORAD 55762·PAYLOAD·🇺🇸 United States

Lanzado Mar 3, 2023 desde Vandenberg Space Force Base

Loading…

Próximos Pases (próximas 24 horas)

TLE

ActualizadoSource: CelesTrak SupGP

Época: Sep 15, 2026, 02:11 UTC

1 55762C 23028X   26258.09145833  .00000967  00000+0  81052-4 0  2585
2 55762  69.9997 107.0165 0002728 277.0856 347.8204 14.98330316    17

Sigue STARLINK-5603 en tiempo real con AllMySat

Download on the App Store